GW4980 Weather Reports


time (UTC)temp
C
wind
direction
speed
KPH
gust
KPH
rain 1hr
cm
rain 24hr
cm
rain mn
cm
humidity
%
barometer
mb
20260504050506 5 276 0.0 1.6 0.00 0.00 0.00 73 1000.8
20260504045416 6 276 0.0 1.6 0.00 0.00 0.00 72 1001.0
20260504044316 6 0.0 0.0 0.00 0.00 0.00 71 1001.1
20260504043217 6 0.0 0.0 0.00 0.00 0.00 71 1001.0
20260504042215 6 276 1.6 1.6 0.00 0.00 0.00 71 1001.1
20260504041116 6 0.0 0.0 0.00 0.00 0.00 70 1000.9
20260504040116 6 276 1.6 1.6 0.00 0.00 0.00 70 1001.1
20260504035116 6 0.0 0.0 0.00 0.00 0.00 70 1000.7
20260504034014 6 0.0 0.0 0.00 0.00 0.00 70 1000.9
20260504033014 6 276 0.0 1.6 0.00 0.00 0.00 70 1000.8
20260504032038 6 0.0 0.0 0.00 0.00 0.00 69 1000.8
20260504030917 7 0.0 0.0 0.00 0.00 0.00 69 1000.8
20260504025946 7 276 0.0 1.6 0.00 0.00 0.00 70 1000.8
20260504024946 7 0.0 0.0 0.00 0.00 0.00 70 1000.6
20260504023946 7 276 0.0 1.6 0.00 0.00 0.00 70 1000.6
20260504023007 7 276 0.0 1.6 0.00 0.00 0.00 69 1000.8
20260504021916 7 276 1.6 1.6 0.00 0.00 0.00 68 1000.8
20260504020847 7 276 0.0 1.6 0.00 0.00 0.00 67 1000.7
20260504015817 7 0.0 0.0 0.00 0.00 0.00 68 1000.6
20260504014835 8 0.0 0.0 0.00 0.00 0.00 66 1000.4
20260504013745 8 276 0.0 1.6 0.00 0.00 0.00 63 1000.5
20260504012717 8 0.0 0.0 0.00 0.00 0.00 63 1000.4
20260504011647 9 0.0 0.0 0.00 0.00 0.00 60 1000.2
20260504010706 10 0.0 0.0 0.00 0.00 0.00 58 1000.3
20260504005646 10 0.0 0.0 0.00 0.00 0.00 57 1000.0
20260504004646 10 0.0 0.0 0.00 0.00 0.00 54 1000.0
20260504003618 11 0.0 0.0 0.00 0.00 0.00 52 1000.2
20260504002647 11 276 1.6 1.6 0.00 0.00 0.00 46 1000.2
20260504001646 12 276 1.6 1.6 0.00 0.00 0.00 46 999.9
20260504000708 12 0.0 0.0 0.00 0.00 0.00 43 999.8
20260503235618 12 0.0 0.0 0.00 0.00 0.00 42 999.8
20260503234647 13 275 0.0 1.6 0.00 0.00 0.00 39 999.8
20260503233708 13 0.0 0.0 0.00 0.00 0.00 40 999.6
20260503232647 13 0.0 0.0 0.00 0.00 0.00 38 999.6
20260503231647 13 342 4.8 8.0 0.00 0.00 0.00 38 999.6
20260503230616 14 307 0.0 1.6 0.00 0.00 0.00 38 999.6
20260503225726 14 332 1.6 3.2 0.00 0.00 0.00 37 999.6
20260503224646 15 321 0.0 1.6 0.00 0.00 0.00 36 999.3
20260503223645 15 318 3.2 3.2 0.00 0.00 0.00 34 999.3
20260503222645 15 8 8.0 9.7 0.00 0.00 0.00 36 999.6
20260503221616 15 177 4.8 4.8 0.00 0.00 0.00 32 999.5
20260503220645 15 354 3.2 3.2 0.00 0.00 0.00 33 999.6
20260503215614 15 312 1.6 1.6 0.00 0.00 0.00 35 999.7
20260503214657 15 321 0.0 1.6 0.00 0.00 0.00 33 999.8
20260503213645 15 340 1.6 1.6 0.00 0.00 0.00 33 999.8
20260503212646 15 358 3.2 3.2 0.00 0.00 0.00 33 999.5
20260503211616 15 241 3.2 4.8 0.00 0.00 0.00 36 999.6
20260503210647 15 261 3.2 8.0 0.00 0.00 0.00 37 999.8
20260503205706 15 301 3.2 4.8 0.00 0.00 0.00 38 999.8
20260503204618 15 272 4.8 8.0 0.00 0.00 0.00 33 999.7
20260503203646 15 315 3.2 4.8 0.00 0.00 0.00 35 999.9
20260503202647 15 335 3.2 3.2 0.00 0.00 0.00 37 999.8
20260503201637 15 306 1.6 1.6 0.00 0.00 0.00 36 999.8
20260503200646 15 326 1.6 3.2 0.00 0.00 0.00 36 1000.0
20260503195646 15 346 3.2 4.8 0.00 0.00 0.00 37 1000.1
20260503194618 16 244 3.2 4.8 0.00 0.00 0.00 37 1000.2
20260503193645 16 294 3.2 4.8 0.00 0.00 0.00 38 1000.6
20260503192616 16 241 6.4 8.0 0.00 0.00 0.00 37 1000.5
20260503191548 15 113 4.8 8.0 0.00 0.00 0.00 34 1000.7
20260503190547 15 345 3.2 3.2 0.00 0.00 0.00 33 1000.7
20260503185517 15 23 6.4 8.0 0.00 0.00 0.00 41 1000.8
20260503184605 15 298 3.2 3.2 0.00 0.00 0.00 43 1001.2
20260503183546 15 6 1.6 3.2 0.00 0.00 0.00 33 1001.1
20260503182516 15 327 1.6 3.2 0.00 0.00 0.00 34 1001.1
20260503181625 14 13 4.8 4.8 0.00 0.00 0.00 32 1001.3
20260503180546 15 340 1.6 1.6 0.00 0.00 0.00 36 1001.2
20260503175536 14 316 1.6 3.2 0.00 0.00 0.00 35 1001.7
20260503174535 14 248 4.8 8.0 0.00 0.00 0.00 41 1001.6
20260503173436 13 291 3.2 3.2 0.00 0.00 0.00 37 1001.6
20260503172415 13 238 9.7 12.9 0.00 0.00 0.00 42 1001.8
20260503171318 13 301 4.8 8.0 0.00 0.00 0.00 40 1002.1
20260503170336 13 265 3.2 3.2 0.00 0.00 0.00 44 1002.0
20260503131046 11 324 4.8 4.8 0.00 0.00 0.00 48 1003.5
20260503130107 11 309 1.6 3.2 0.00 0.00 0.00 52 1003.4
20260503100106 5 0.0 0.0 0.00 0.00 0.00 63 1001.8
20260503090108 5 332 1.6 3.2 0.00 0.00 0.00 64 1001.5
20260503081045 5 0.0 0.0 0.00 0.00 0.00 64 1001.3
20260503080107 5 352 0.0 1.6 0.00 0.00 0.00 64 1001.4
20260503072045 6 0.0 0.0 0.00 0.00 0.00 64 1000.8